Time,TemperatureF,DewpointF,PressureIn,WindDirection,WindDirectionDegrees,WindSpeedMPH,WindSpeedGustMPH,Humidity,HourlyPrecipIn,Conditions,Clouds,dailyrainin,SoftwareType,DateUTC
2013-02-19 00:09:00,49.8,38.9,30.13,West,270,5.8,-999.0,66,-99.99,,,0.00,Acu-Link.com,2013-02-19 05:09:00,
2013-02-19 00:26:00,49.8,39.3,30.13,SW,225,5.8,-999.0,67,-99.99,,,0.00,Acu-Link.com,2013-02-19 05:26:00,
2013-02-19 00:47:00,49.8,40.0,30.12,SW,225,4.2,-999.0,69,-99.99,,,0.00,Acu-Link.com,2013-02-19 05:47:00,
2013-02-19 01:11:00,50.0,40.2,30.12,SSW,202,5.3,-999.0,69,-99.99,,,0.00,Acu-Link.com,2013-02-19 06:11:00,
2013-02-19 01:41:00,49.8,40.4,30.11,NW,315,2.7,-999.0,70,-99.99,,,0.00,Acu-Link.com,2013-02-19 06:41:00,
2013-02-19 02:07:00,49.8,40.4,30.10,SSW,202,1.7,-999.0,70,-99.99,,,0.00,Acu-Link.com,2013-02-19 07:07:00,
2013-02-19 02:32:00,48.9,42.0,30.08,SSW,202,1.7,-999.0,77,-99.99,,,0.00,Acu-Link.com,2013-02-19 07:32:00,
2013-02-19 02:51:00,47.1,40.9,30.08,SSW,202,0.0,-999.0,79,-99.99,,,0.00,Acu-Link.com,2013-02-19 07:51:00,
2013-02-19 03:06:00,45.5,40.3,30.07,ENE,67,0.0,-999.0,82,-99.99,,,0.00,Acu-Link.com,2013-02-19 08:06:00,
2013-02-19 03:21:00,44.1,39.6,30.06,ENE,67,0.0,-999.0,84,-99.99,,,0.00,Acu-Link.com,2013-02-19 08:21:00,
2013-02-19 03:36:00,43.0,39.4,30.05,ENE,67,0.0,-999.0,87,-99.99,,,0.00,Acu-Link.com,2013-02-19 08:36:00,
2013-02-19 03:52:00,41.4,38.1,30.05,ENE,67,0.0,-999.0,88,-99.99,,,0.00,Acu-Link.com,2013-02-19 08:52:00,
2013-02-19 04:17:00,41.0,38.3,30.06,ENE,67,0.0,-999.0,90,-99.99,,,0.00,Acu-Link.com,2013-02-19 09:17:00,
2013-02-19 04:32:00,40.5,38.6,30.05,East,90,0.0,-999.0,93,-99.99,,,0.00,Acu-Link.com,2013-02-19 09:32:00,
2013-02-19 04:48:00,41.0,39.4,30.03,ENE,67,0.0,-999.0,94,-99.99,,,0.00,Acu-Link.com,2013-02-19 09:48:00,
2013-02-19 05:03:00,40.8,39.5,30.02,ENE,67,0.0,-999.0,95,-99.99,,,0.00,Acu-Link.com,2013-02-19 10:03:00,
2013-02-19 05:18:00,40.5,39.2,30.03,South,180,0.0,-999.0,95,-99.99,,,0.00,Acu-Link.com,2013-02-19 10:18:00,
2013-02-19 05:33:00,41.0,39.9,30.02,ENE,67,0.0,-999.0,96,-99.99,,,0.00,Acu-Link.com,2013-02-19 10:33:00,
2013-02-19 05:48:00,42.1,41.3,30.02,ENE,67,0.0,-999.0,97,-99.99,,,0.00,Acu-Link.com,2013-02-19 10:48:00,
2013-02-19 06:03:00,41.9,41.1,30.02,NW,315,0.0,-999.0,97,-99.99,,,0.00,Acu-Link.com,2013-02-19 11:03:00,
2013-02-19 06:19:00,41.0,40.2,30.01,NW,315,0.0,-999.0,97,-99.99,,,0.00,Acu-Link.com,2013-02-19 11:19:00,
2013-02-19 06:34:00,40.6,39.8,30.00,NNE,22,0.0,-999.0,97,-99.99,,,0.00,Acu-Link.com,2013-02-19 11:34:00,
2013-02-19 06:49:00,40.8,40.0,29.99,NE,45,0.0,-999.0,97,-99.99,,,0.00,Acu-Link.com,2013-02-19 11:49:00,
2013-02-19 07:04:00,41.4,40.6,29.98,NNE,22,1.7,-999.0,97,-99.99,,,0.00,Acu-Link.com,2013-02-19 12:04:00,
2013-02-19 07:42:00,41.4,40.6,29.98,NW,315,0.0,-999.0,97,-99.99,,,0.00,Acu-Link.com,2013-02-19 12:42:00,
2013-02-19 08:07:00,47.5,46.4,29.99,ESE,112,3.2,-999.0,96,-99.99,,,0.00,Acu-Link.com,2013-02-19 13:07:00,
2013-02-19 10:01:00,57.7,51.9,29.96,SW,225,8.9,-999.0,81,-99.99,,,0.01,Acu-Link.com,2013-02-19 15:01:00,
2013-02-19 10:16:00,58.3,52.5,29.95,WNW,292,5.8,-999.0,81,-99.99,,,0.01,Acu-Link.com,2013-02-19 15:16:00,
2013-02-19 10:39:00,59.2,52.3,29.94,WSW,247,7.8,-999.0,78,-99.99,,,0.01,Acu-Link.com,2013-02-19 15:39:00,
2013-02-19 11:19:00,59.2,52.3,29.93,SW,225,9.4,-999.0,78,-99.99,,,0.01,Acu-Link.com,2013-02-19 16:19:00,
2013-02-19 11:35:00,60.3,52.7,29.92,SSW,202,5.3,-999.0,76,-99.99,,,0.01,Acu-Link.com,2013-02-19 16:35:00,
2013-02-19 11:50:00,60.1,52.9,29.90,NNW,337,3.7,-999.0,77,-99.99,,,0.01,Acu-Link.com,2013-02-19 16:50:00,
2013-02-19 12:05:00,60.1,52.9,29.87,ESE,112,4.7,-999.0,77,-99.99,,,0.01,Acu-Link.com,2013-02-19 17:05:00,
2013-02-19 12:20:00,59.7,53.2,29.86,SSE,157,5.8,-999.0,79,-99.99,,,0.01,Acu-Link.com,2013-02-19 17:20:00,
2013-02-19 12:36:00,59.7,53.5,29.85,SSW,202,4.2,-999.0,80,-99.99,,,0.01,Acu-Link.com,2013-02-19 17:36:00,
2013-02-19 12:54:00,59.5,53.3,29.85,SW,225,2.2,-999.0,80,-99.99,,,0.01,Acu-Link.com,2013-02-19 17:54:00,
2013-02-19 13:10:00,59.5,53.3,29.82,SSW,202,5.3,-999.0,80,-99.99,,,0.01,Acu-Link.com,2013-02-19 18:10:00,
2013-02-19 13:25:00,59.7,53.2,29.82,SSW,202,10.9,-999.0,79,-99.99,,,0.01,Acu-Link.com,2013-02-19 18:25:00,
2013-02-19 13:40:00,56.5,53.9,29.83,SW,225,6.8,-999.0,91,-99.99,,,0.05,Acu-Link.com,2013-02-19 18:40:00,
2013-02-19 13:55:00,55.2,53.2,29.83,WNW,292,10.9,-999.0,93,-99.99,,,0.11,Acu-Link.com,2013-02-19 18:55:00,
2013-02-19 14:10:00,54.3,52.3,29.83,SSW,202,11.4,-999.0,93,-99.99,,,0.15,Acu-Link.com,2013-02-19 19:10:00,
2013-02-19 14:25:00,53.8,52.1,29.81,WSW,247,8.3,-999.0,94,-99.99,,,0.27,Acu-Link.com,2013-02-19 19:25:00,
2013-02-19 14:40:00,53.8,52.1,29.80,SW,225,6.3,-999.0,94,-99.99,,,0.28,Acu-Link.com,2013-02-19 19:40:00,
2013-02-19 14:55:00,54.1,52.4,29.78,SW,225,4.7,-999.0,94,-99.99,,,0.28,Acu-Link.com,2013-02-19 19:55:00,
2013-02-19 15:11:00,54.5,52.2,29.77,SSW,202,5.3,-999.0,92,-99.99,,,0.29,Acu-Link.com,2013-02-19 20:11:00,
2013-02-19 15:26:00,55.2,52.0,29.76,South,180,8.9,-999.0,89,-99.99,,,0.29,Acu-Link.com,2013-02-19 20:26:00,
2013-02-19 15:41:00,55.8,52.3,29.74,SW,225,6.3,-999.0,88,-99.99,,,0.29,Acu-Link.com,2013-02-19 20:41:00,
2013-02-19 15:56:00,56.1,52.0,29.75,SW,225,7.8,-999.0,86,-99.99,,,0.29,Acu-Link.com,2013-02-19 20:56:00,
2013-02-19 16:11:00,56.8,51.7,29.74,SW,225,8.3,-999.0,83,-99.99,,,0.29,Acu-Link.com,2013-02-19 21:11:00,
2013-02-19 16:26:00,57.4,51.3,29.74,West,270,8.3,-999.0,80,-99.99,,,0.29,Acu-Link.com,2013-02-19 21:26:00,
2013-02-19 16:46:00,57.0,51.6,29.73,South,180,7.8,-999.0,82,-99.99,,,0.29,Acu-Link.com,2013-02-19 21:46:00,
2013-02-19 17:24:00,57.0,51.6,29.73,NNW,337,11.4,-999.0,82,-99.99,,,0.29,Acu-Link.com,2013-02-19 22:24:00,
2013-02-19 18:21:00,55.9,50.8,29.74,NNW,337,10.9,-999.0,83,-99.99,,,0.29,Acu-Link.com,2013-02-19 23:21:00,
2013-02-19 18:37:00,56.3,49.9,29.75,South,180,13.0,-999.0,79,-99.99,,,0.29,Acu-Link.com,2013-02-19 23:37:00,
2013-02-19 18:55:00,55.9,49.5,29.74,SW,225,8.3,-999.0,79,-99.99,,,0.29,Acu-Link.com,2013-02-19 23:55:00,
2013-02-19 19:11:00,56.1,51.0,29.73,SSW,202,6.8,-999.0,83,-99.99,,,0.29,Acu-Link.com,2013-02-20 00:11:00,
2013-02-19 19:53:00,55.9,51.5,29.72,SSW,202,7.3,-999.0,85,-99.99,,,0.29,Acu-Link.com,2013-02-20 00:53:00,